• In Russia
  • List of Countries
  • For 7 days
  • Water Temperature
  • Satellite Maps
  • Weather Map
  • Weather Widgets
  • user-avatar
    Login

    Hourly Weather Kaprun

    Today, 25 May, Thursday

    Time Temperature Precipitation Wind Pressure Humidity
    00:00 +3°C° 1.7 mm 2 mps 599 mmHg 97%
    01:00 +2°C° 0 mm 2 mps 599 mmHg 97%
    02:00 +2°C° 0.3 mm 2 mps 598 mmHg 97%
    03:00 +1°C° 0.3 mm 2 mps 598 mmHg 97%
    04:00 -1°C° 0.3 mm 2 mps 598 mmHg 97%
    05:00 +1°C° 0 mm 2 mps 598 mmHg 95%
    06:00 +2°C° 0 mm 2 mps 599 mmHg 93%
    07:00 +3°C° 0 mm 2 mps 599 mmHg 90%
    08:00 +4°C° 0 mm 2 mps 600 mmHg 83%
    09:00 +5°C° 0 mm 2 mps 600 mmHg 76%
    10:00 +7°C° 0 mm 2 mps 601 mmHg 69%
    11:00 +7°C° 0 mm 2 mps 601 mmHg 67%
    12:00 +8°C° 0 mm 2 mps 601 mmHg 64%
    13:00 +9°C° 0 mm 2 mps 601 mmHg 62%
    14:00 +9°C° 0 mm 2 mps 601 mmHg 63%
    15:00 +9°C° 0 mm 2 mps 601 mmHg 64%
    16:00 +9°C° 0 mm 2 mps 601 mmHg 65%
    17:00 +8°C° 0 mm 2 mps 600 mmHg 73%
    18:00 +7°C° 0 mm 2 mps 600 mmHg 81%
    19:00 +5°C° 0 mm 2 mps 599 mmHg 89%
    20:00 +4°C° 0 mm 2 mps 599 mmHg 92%
    21:00 +4°C° 0 mm 1 mps 599 mmHg 95%
    22:00 +3°C° 0 mm 1 mps 598 mmHg 97%
    23:00 +2°C° 0 mm 1 mps 598 mmHg 97%

    Tomorrow, 26 May, Friday

    Time Temperature Precipitation Wind Pressure Humidity
    00:00 +2°C° 0 mm 1 mps 598 mmHg 97%
    01:00 +1°C° 0 mm 1 mps 598 mmHg 97%
    02:00 +1°C° 0 mm 1 mps 598 mmHg 96%
    03:00 +1°C° 0 mm 1 mps 597 mmHg 96%
    04:00 0°C° 0 mm 1 mps 597 mmHg 95%
    05:00 +2°C° 0 mm 1 mps 598 mmHg 89%
    06:00 +4°C° 0 mm 1 mps 599 mmHg 83%
    07:00 +6°C° 0 mm 1 mps 600 mmHg 77%
    08:00 +8°C° 0 mm 1 mps 600 mmHg 71%
    09:00 +8°C° 0 mm 2 mps 601 mmHg 65%
    10:00 +10°C° 0 mm 2 mps 602 mmHg 59%
    11:00 +12°C° 0 mm 2 mps 602 mmHg 58%
    12:00 +12°C° 0 mm 2 mps 602 mmHg 56%
    13:00 +13°C° 0 mm 2 mps 602 mmHg 55%
    14:00 +13°C° 0 mm 2 mps 602 mmHg 58%
    15:00 +13°C° 0 mm 2 mps 602 mmHg 60%
    16:00 +13°C° 0 mm 2 mps 601 mmHg 62%
    17:00 +10°C° 0 mm 2 mps 601 mmHg 71%
    18:00 +9°C° 0 mm 2 mps 600 mmHg 80%
    19:00 +9°C° 0 mm 1 mps 600 mmHg 88%
    20:00 +7°C° 0 mm 1 mps 599 mmHg 91%
    21:00 +5°C° 0 mm 1 mps 599 mmHg 95%
    22:00 +3°C° 0 mm 1 mps 598 mmHg 98%
    23:00 +2°C° 0 mm 1 mps 598 mmHg 97%

    Day after tomorrow, 27 May, Saturday

    Time Temperature Precipitation Wind Pressure Humidity
    00:00 +2°C° 0 mm 1 mps 598 mmHg 96%
    01:00 +2°C° 0 mm 1 mps 598 mmHg 95%
    02:00 +1°C° 0 mm 1 mps 598 mmHg 94%
    03:00 +1°C° 0 mm 1 mps 598 mmHg 93%
    04:00 +1°C° 0 mm 1 mps 598 mmHg 91%
    05:00 +4°C° 0 mm 1 mps 599 mmHg 85%
    06:00 +5°C° 0 mm 0 mps 600 mmHg 78%
    07:00 +8°C° 0 mm 0 mps 602 mmHg 71%
    08:00 +11°C° 0 mm 1 mps 603 mmHg 64%
    09:00 +13°C° 0 mm 1 mps 604 mmHg 56%
    10:00 +14°C° 0 mm 1 mps 604 mmHg 48%
    11:00 +15°C° 0 mm 1 mps 605 mmHg 48%
    12:00 +16°C° 0 mm 1 mps 605 mmHg 47%
    13:00 +16°C° 0 mm 1 mps 605 mmHg 47%
    14:00 +16°C° 0.1 mm 1 mps 605 mmHg 50%
    15:00 +16°C° 0.1 mm 1 mps 604 mmHg 53%
    16:00 +15°C° 0.1 mm 1 mps 604 mmHg 56%
    17:00 +14°C° 0.2 mm 1 mps 604 mmHg 67%
    18:00 +12°C° 0.2 mm 1 mps 603 mmHg 77%
    19:00 +10°C° 0.2 mm 1 mps 602 mmHg 88%
    20:00 +8°C° 0 mm 1 mps 602 mmHg 90%
    21:00 +6°C° 0 mm 1 mps 601 mmHg 92%
    22:00 +4°C° 0 mm 1 mps 600 mmHg 94%
    23:00 +4°C° 0 mm 1 mps 601 mmHg 95%

    28 May, Sunday

    Time Temperature Precipitation Wind Pressure Humidity
    00:00 +5°C° 0 mm 1 mps 601 mmHg 95%
    01:00 +5°C° 0 mm 1 mps 601 mmHg 95%
    02:00 +5°C° 0 mm 1 mps 601 mmHg 95%
    03:00 +5°C° 0 mm 1 mps 601 mmHg 95%
    04:00 +5°C° 0 mm 1 mps 601 mmHg 96%
    05:00 +7°C° 0 mm 1 mps 602 mmHg 92%
    06:00 +8°C° 0 mm 1 mps 603 mmHg 87%
    07:00 +10°C° 0 mm 1 mps 604 mmHg 83%
    08:00 +12°C° 0 mm 1 mps 605 mmHg 72%
    09:00 +15°C° 0 mm 1 mps 606 mmHg 61%
    10:00 +16°C° 0 mm 0 mps 606 mmHg 50%
    11:00 +18°C° 0 mm 1 mps 606 mmHg 48%
    12:00 +19°C° 0 mm 1 mps 606 mmHg 47%
    13:00 +19°C° 0 mm 1 mps 606 mmHg 45%
    14:00 +19°C° 0.1 mm 1 mps 606 mmHg 49%
    15:00 +19°C° 0.1 mm 1 mps 606 mmHg 53%
    16:00 +18°C° 0.1 mm 1 mps 605 mmHg 57%
    17:00 +15°C° 0.4 mm 1 mps 604 mmHg 67%
    18:00 +14°C° 0.4 mm 1 mps 604 mmHg 77%
    19:00 +12°C° 0.4 mm 1 mps 603 mmHg 87%
    20:00 +10°C° 0 mm 1 mps 603 mmHg 89%
    21:00 +9°C° 0 mm 1 mps 602 mmHg 92%
    22:00 +7°C° 0 mm 1 mps 601 mmHg 94%
    23:00 +7°C° 0 mm 1 mps 601 mmHg 94%

    29 May, Monday

    Time Temperature Precipitation Wind Pressure Humidity
    00:00 +7°C° 0 mm 1 mps 601 mmHg 95%
    01:00 +6°C° 0 mm 2 mps 601 mmHg 95%
    02:00 +6°C° 0 mm 1 mps 600 mmHg 95%
    03:00 +6°C° 0 mm 1 mps 600 mmHg 95%
    04:00 +5°C° 0 mm 1 mps 600 mmHg 94%
    05:00 +8°C° 0 mm 1 mps 601 mmHg 90%
    06:00 +10°C° 0 mm 1 mps 602 mmHg 85%
    07:00 +12°C° 0 mm 1 mps 603 mmHg 80%
    08:00 +14°C° 0 mm 1 mps 603 mmHg 71%
    09:00 +16°C° 0 mm 1 mps 604 mmHg 61%
    10:00 +17°C° 0 mm 0 mps 605 mmHg 51%
    11:00 +20°C° 0 mm 1 mps 605 mmHg 51%
    12:00 +20°C° 0 mm 1 mps 604 mmHg 50%
    13:00 +21°C° 0 mm 1 mps 604 mmHg 50%
    14:00 +20°C° 0.4 mm 1 mps 604 mmHg 55%
    15:00 +19°C° 0.4 mm 1 mps 603 mmHg 60%
    16:00 +18°C° 0.4 mm 1 mps 603 mmHg 66%
    17:00 +16°C° 0.6 mm 1 mps 602 mmHg 74%
    18:00 +15°C° 0.6 mm 1 mps 601 mmHg 82%
    19:00 +13°C° 0.6 mm 1 mps 601 mmHg 90%
    20:00 +11°C° 0.2 mm 1 mps 600 mmHg 92%
    21:00 +9°C° 0.2 mm 1 mps 599 mmHg 94%
    22:00 +6°C° 0.2 mm 1 mps 598 mmHg 96%
    23:00 +6°C° 0 mm 1 mps 598 mmHg 96%

    30 May, Tuesday

    Time Temperature Precipitation Wind Pressure Humidity
    00:00 +6°C° 0 mm 1 mps 598 mmHg 95%
    01:00 +6°C° 0 mm 1 mps 598 mmHg 95%
    02:00 +6°C° 0 mm 1 mps 597 mmHg 94%
    03:00 +6°C° 0 mm 1 mps 597 mmHg 94%
    04:00 +6°C° 0 mm 1 mps 597 mmHg 94%
    05:00 +8°C° 0 mm 1 mps 598 mmHg 89%
    06:00 +10°C° 0 mm 0 mps 599 mmHg 85%
    07:00 +12°C° 0 mm 0 mps 601 mmHg 80%
    08:00 +14°C° 0 mm 0 mps 601 mmHg 72%
    09:00 +16°C° 0 mm 1 mps 602 mmHg 65%
    10:00 +19°C° 0 mm 1 mps 603 mmHg 57%
    11:00 +19°C° 0.6 mm 1 mps 602 mmHg 60%
    12:00 +20°C° 0.6 mm 1 mps 602 mmHg 62%
    13:00 +19°C° 0.6 mm 2 mps 602 mmHg 65%
    14:00 +18°C° 1.6 mm 2 mps 602 mmHg 68%
    15:00 +19°C° 1.6 mm 1 mps 602 mmHg 71%
    16:00 +18°C° 1.6 mm 1 mps 602 mmHg 74%
    17:00 +16°C° 0.8 mm 1 mps 601 mmHg 80%
    18:00 +14°C° 0.8 mm 1 mps 601 mmHg 86%
    19:00 +12°C° 0.8 mm 0 mps 600 mmHg 92%
    20:00 +10°C° 0.3 mm 0 mps 600 mmHg 93%
    21:00 +8°C° 0.3 mm 0 mps 599 mmHg 95%
    22:00 +6°C° 0.3 mm 0 mps 598 mmHg 97%
    23:00 +6°C° 1 mm 0 mps 598 mmHg 97%
    Show more